CSN5725 ZGSD-ZUCK

Flight info

Callsign CSN5725
Flight time N/A
Altitude 36100
Route GUBLO W21 TEPID W24 OSNOV G586 QP/K0856S1160 B330 ELKAL W179 SUMUN W3 AGTIS/K0857S1130 W3 ASIPO/K0854S1160 W678 SEGDA SEGDQ6
Aircraft B738/M-SDE2E3FGHIRWXY/LB1

Departure

Time 2026-04-26 01:38
Airport Zhuhai Jinwan Airport (ZGSD)

Arrival

Time N/A
Airport Chongqing Jiangbei International Airport (ZUCK)
Time Latitude Longitude Altitude Speed Heading
2026-04-26 00:53 22.01067 113.37500 27 ft 0 kts 250°
2026-04-26 01:23 22.01068 113.37502 26 ft 2 kts 250°
2026-04-26 01:23 22.01071 113.37513 26 ft 2 kts 251°
2026-04-26 01:23 22.01076 113.37528 24 ft 2 kts 251°
2026-04-26 01:23 22.01081 113.37543 23 ft 2 kts 250°
2026-04-26 01:24 22.01086 113.37559 23 ft 2 kts 251°
2026-04-26 01:24 22.01089 113.37569 22 ft 2 kts 251°
2026-04-26 01:24 22.01097 113.37582 22 ft 2 kts 218°
2026-04-26 01:24 22.01111 113.37590 21 ft 2 kts 193°
2026-04-26 01:25 22.01126 113.37591 21 ft 2 kts 167°
2026-04-26 01:25 22.01140 113.37584 21 ft 1 kts 142°
2026-04-26 01:25 22.01144 113.37579 21 ft 1 kts 131°
2026-04-26 01:25 22.01147 113.37577 21 ft 0 kts 134°
2026-04-26 01:29 22.01136 113.37588 21 ft 4 kts 136°
2026-04-26 01:29 22.01106 113.37620 22 ft 8 kts 134°
2026-04-26 01:29 22.01054 113.37676 24 ft 9 kts 134°
2026-04-26 01:29 22.01016 113.37718 26 ft 5 kts 135°
2026-04-26 01:30 22.00995 113.37730 27 ft 1 kts 161°
2026-04-26 01:30 22.00976 113.37730 27 ft 3 kts 197°
2026-04-26 01:30 22.00955 113.37713 28 ft 5 kts 224°
2026-04-26 01:31 22.00940 113.37697 29 ft 5 kts 224°
2026-04-26 01:31 22.00922 113.37678 30 ft 1 kts 224°
2026-04-26 01:31 22.00918 113.37674 31 ft 1 kts 224°
2026-04-26 01:31 22.00906 113.37661 32 ft 3 kts 224°
2026-04-26 01:32 22.00878 113.37632 34 ft 7 kts 225°
2026-04-26 01:32 22.00837 113.37588 38 ft 9 kts 224°
2026-04-26 01:32 22.00780 113.37528 41 ft 13 kts 225°
2026-04-26 01:32 22.00700 113.37443 45 ft 16 kts 225°
2026-04-26 01:33 22.00612 113.37349 50 ft 15 kts 225°
2026-04-26 01:33 22.00512 113.37242 36 ft 24 kts 224°
2026-04-26 01:33 22.00398 113.37122 33 ft 25 kts 224°
2026-04-26 01:33 22.00243 113.36963 26 ft 36 kts 225°
2026-04-26 01:34 22.00078 113.36782 21 ft 29 kts 225°
2026-04-26 01:34 21.99954 113.36651 23 ft 23 kts 224°
2026-04-26 01:34 21.99840 113.36529 23 ft 22 kts 225°
2026-04-26 01:34 21.99744 113.36427 23 ft 17 kts 225°
2026-04-26 01:35 21.99674 113.36351 23 ft 11 kts 224°
2026-04-26 01:35 21.99617 113.36295 24 ft 9 kts 204°
2026-04-26 01:35 21.99575 113.36301 25 ft 2 kts 147°
2026-04-26 01:35 21.99565 113.36310 25 ft 1 kts 135°
2026-04-26 01:36 21.99556 113.36320 25 ft 3 kts 133°
2026-04-26 01:36 21.99527 113.36351 25 ft 8 kts 136°
2026-04-26 01:36 21.99500 113.36402 25 ft 6 kts 81°
2026-04-26 01:37 21.99534 113.36455 25 ft 0 kts 44°
2026-04-26 01:37 21.99542 113.36464 24 ft 2 kts 44°
2026-04-26 01:37 21.99565 113.36488 24 ft 17 kts 44°
2026-04-26 01:37 21.99826 113.36766 19 ft 85 kts 45°
2026-04-26 01:38 22.00391 113.37367 36 ft 139 kts 46°
2026-04-26 01:38 22.01095 113.38104 545 ft 141 kts 45°
2026-04-26 01:38 22.01852 113.38853 991 ft 152 kts 43°
2026-04-26 01:38 22.02635 113.39557 1618 ft 152 kts 41°
2026-04-26 01:39 22.03488 113.40327 2077 ft 166 kts 42°
2026-04-26 01:39 22.04395 113.41163 2555 ft 180 kts 42°
2026-04-26 01:39 22.05395 113.42092 2957 ft 201 kts 41°
2026-04-26 01:39 22.06544 113.43159 3022 ft 227 kts 41°
2026-04-26 01:40 22.07780 113.44304 3000 ft 243 kts 41°
2026-04-26 01:40 22.09133 113.45559 3168 ft 267 kts 41°
2026-04-26 01:40 22.10527 113.46853 4147 ft 266 kts 41°
2026-04-26 01:40 22.11621 113.47868 4812 ft 269 kts 41°